Regional Weather Roundup
Issued by NWS

Current Version | Previous Version | Text Only | Print | Product List | Glossary On
Versions: 1 2 3 4 5 6 7 8 9 10 11 12 13 14 15 16 17 18 19 20 21 22 23 24 25 26 27 28 29 30 31 32 33 34 35 36 37 38 39 40 41 42 43 44 45 46 47 48 49 50
000
ASCA42 TJSJ 010410
RWRPR
PUERTO RICO/U.S. VIRGIN ISLANDS HOURLY WEATHER ROUNDUP
NATIONAL WEATHER SERVICE SAN JUAN PR
1200 AM AST WED JUL 01 2015

PRZ001-004-010500-
PUERTO RICO

CITY           SKY/WX    TMP DP  RH WIND       PRES   REMARKS
SAN JUAN LMM   PTCLDY    79  73  83 E6        30.15F
PONCE          MOCLDY    79  73  83 NE6       30.09S
AGUADILLA      CLEAR     77  73  88 E7        30.16S
CEIBA          CLOUDY    79  75  89 NE10      30.16F
$$

PRZ006-007-010500-
U.S. VIRGIN ISLANDS

CITY           SKY/WX    TMP DP  RH WIND       PRES   REMARKS
CHARLOTTE AMA  CLOUDY    81  75  83 E16       30.13F
CHRISTIANSTED  CLOUDY    81  73  78 E9        30.13F
$$

HOURLY WEATHER ROUNDUP FOR THE NEWS MEDIA

CITY           SKY/WX    TMP DP  RH WIND       PRES   REMARKS
ORLANDO        FAIR      83  75  77 SW5       30.11F HX  90
NEW YORK       CLOUDY    73  68  84 SE18      29.85F
NEWARK         MOCLDY    74  70  87 SE6       29.84S
CHICAGO        MOCLDY    59  53  80 NE7       29.92R
HARTFORD       FAIR      67  63  87 SE8       29.95F
BOSTON         FAIR      67  61  81 S7        29.96F
DALLAS         MOCLDY    84  69  60 SW9       30.00R
PHILADELPHIA   MOCLDY    74  70  87 CALM      29.82F
LOS ANGELES    PTCLDY    71  64  78 W13       29.83R
WASHINGTON DC  CLOUDY    76  62  62 W6        29.83R


USA.gov is the U.S. government's official web portal to all federal, state and local government web resources and services.